DAP2997 SCCF-SPHY

Flight info

Callsign DAP2997
Flight time 1h 34m
Altitude 26000
Route VURE3K VUREL UM789 AKNUV UL797 OPLES UM789 SIRAM KORZO KATOS REMUS AND
Aircraft RJ1H/M-Y/S

Departure

Time 2026-05-08 15:13
Airport El Loa Airport (SCCF)

Arrival

Time 2026-05-08 16:47
Airport Andahuaylas Airport (SPHY)
Time Latitude Longitude Altitude Speed Heading
2026-05-08 14:51 -22.49595 -68.90754 7496 ft 0 kts
2026-05-08 15:03 -22.49617 -68.90753 7488 ft 4 kts 354°
2026-05-08 15:04 -22.49638 -68.90758 7493 ft 2 kts 36°
2026-05-08 15:04 -22.49655 -68.90778 7482 ft 4 kts 71°
2026-05-08 15:04 -22.49657 -68.90804 7482 ft 2 kts 95°
2026-05-08 15:04 -22.49657 -68.90805 7482 ft 0 kts 95°
2026-05-08 15:07 -22.49657 -68.90804 7482 ft 1 kts 95°
2026-05-08 15:07 -22.49658 -68.90790 7499 ft 5 kts 105°
2026-05-08 15:07 -22.49728 -68.90770 7493 ft 13 kts 185°
2026-05-08 15:08 -22.49793 -68.90774 7479 ft 12 kts 166°
2026-05-08 15:08 -22.49810 -68.90689 7496 ft 14 kts 94°
2026-05-08 15:08 -22.49822 -68.90586 7507 ft 15 kts 97°
2026-05-08 15:08 -22.49831 -68.90463 7514 ft 17 kts 94°
2026-05-08 15:09 -22.49839 -68.90333 7530 ft 19 kts 94°
2026-05-08 15:09 -22.49849 -68.90179 7541 ft 22 kts 94°
2026-05-08 15:09 -22.49860 -68.90005 7556 ft 24 kts 94°
2026-05-08 15:09 -22.49872 -68.89813 7569 ft 27 kts 94°
2026-05-08 15:10 -22.49886 -68.89591 7582 ft 31 kts 94°
2026-05-08 15:10 -22.49901 -68.89352 7596 ft 30 kts 94°
2026-05-08 15:10 -22.49916 -68.89159 7609 ft 21 kts 95°
2026-05-08 15:10 -22.49927 -68.89031 7618 ft 13 kts 95°
2026-05-08 15:11 -22.49934 -68.88929 7626 ft 15 kts 94°
2026-05-08 15:11 -22.49972 -68.88839 7634 ft 15 kts 172°
2026-05-08 15:11 -22.50082 -68.88848 7635 ft 11 kts 185°
2026-05-08 15:11 -22.50108 -68.88946 7628 ft 33 kts 274°
2026-05-08 15:12 -22.50074 -68.89410 7595 ft 89 kts 275°
2026-05-08 15:12 -22.50019 -68.90253 7538 ft 134 kts 275°
2026-05-08 15:12 -22.49939 -68.91399 7549 ft 163 kts 274°
2026-05-08 15:12 -22.49842 -68.92620 7960 ft 160 kts 277°
2026-05-08 15:13 -22.49483 -68.93725 8248 ft 161 kts 304°
2026-05-08 15:13 -22.48617 -68.94522 8496 ft 166 kts 333°
2026-05-08 15:13 -22.47561 -68.94969 8926 ft 167 kts 337°
2026-05-08 15:13 -22.46457 -68.95498 9184 ft 171 kts 334°
2026-05-08 15:14 -22.45384 -68.96077 9414 ft 180 kts 332°
2026-05-08 15:14 -22.44205 -68.96741 9515 ft 199 kts 331°
2026-05-08 15:14 -22.42959 -68.97513 9684 ft 218 kts 328°
2026-05-08 15:14 -22.41605 -68.98443 9942 ft 243 kts 327°
2026-05-08 15:15 -22.40155 -68.99476 10471 ft 254 kts 326°
2026-05-08 15:15 -22.38662 -69.00537 11124 ft 262 kts 326°
2026-05-08 15:15 -22.37089 -69.01649 11537 ft 278 kts 326°
2026-05-08 15:15 -22.35411 -69.02822 11849 ft 296 kts 326°
2026-05-08 15:16 -22.33630 -69.04065 12019 ft 312 kts 326°
2026-05-08 15:16 -22.31789 -69.05353 12191 ft 326 kts 326°
2026-05-08 15:16 -22.29841 -69.06693 12456 ft 335 kts 327°
2026-05-08 15:16 -22.27798 -69.07936 12864 ft 339 kts 330°
2026-05-08 15:17 -22.25702 -69.09120 13246 ft 342 kts 331°
2026-05-08 15:17 -22.24880 -69.09584 13400 ft 343 kts 331°
2026-05-08 15:17 -22.22752 -69.10781 13770 ft 346 kts 330°
2026-05-08 15:17 -22.20623 -69.11998 14092 ft 348 kts 330°
2026-05-08 15:18 -22.18483 -69.13232 14419 ft 350 kts 330°
2026-05-08 15:18 -22.16322 -69.14480 14716 ft 352 kts 329°
2026-05-08 15:18 -22.14170 -69.15745 15029 ft 354 kts 329°
2026-05-08 15:18 -22.12004 -69.17023 15345 ft 356 kts 329°
2026-05-08 15:19 -22.09822 -69.18310 15656 ft 358 kts 329°
2026-05-08 15:19 -22.07629 -69.19596 15969 ft 360 kts 329°
2026-05-08 15:19 -22.05421 -69.20886 16283 ft 361 kts 329°
2026-05-08 15:19 -22.03201 -69.22177 16581 ft 364 kts 329°
2026-05-08 15:20 -22.00995 -69.23455 16876 ft 366 kts 329°
2026-05-08 15:20 -21.98747 -69.24754 17170 ft 368 kts 329°
2026-05-08 15:20 -21.96495 -69.26076 17457 ft 369 kts 328°
2026-05-08 15:20 -21.94236 -69.27415 17747 ft 371 kts 328°
2026-05-08 15:21 -21.91953 -69.28743 18033 ft 374 kts 329°
2026-05-08 15:21 -21.89656 -69.30082 18301 ft 376 kts 328°
2026-05-08 15:21 -21.87359 -69.31434 18556 ft 377 kts 328°
2026-05-08 15:21 -21.85050 -69.32781 18816 ft 378 kts 329°
2026-05-08 15:22 -21.82725 -69.34119 19065 ft 379 kts 329°
2026-05-08 15:22 -21.80395 -69.35458 19318 ft 380 kts 329°
2026-05-08 15:22 -21.78088 -69.36864 19569 ft 381 kts 326°
2026-05-08 15:22 -21.75836 -69.38374 19811 ft 381 kts 325°
2026-05-08 15:23 -21.73600 -69.39914 20051 ft 383 kts 324°
2026-05-08 15:23 -21.71360 -69.41476 20293 ft 384 kts 324°
2026-05-08 15:23 -21.69143 -69.43020 20528 ft 385 kts 325°
2026-05-08 15:23 -21.66879 -69.44575 20765 ft 387 kts 325°
2026-05-08 15:24 -21.64608 -69.46129 20991 ft 388 kts 325°
2026-05-08 15:24 -21.62325 -69.47691 21220 ft 389 kts 325°
2026-05-08 15:24 -21.60025 -69.49257 21447 ft 391 kts 326°
2026-05-08 15:24 -21.57709 -69.50803 21669 ft 392 kts 326°
2026-05-08 15:25 -21.55398 -69.52363 21897 ft 393 kts 325°
2026-05-08 15:25 -21.53083 -69.53941 22112 ft 395 kts 326°
2026-05-08 15:25 -21.50748 -69.55505 22326 ft 396 kts 326°
2026-05-08 15:25 -21.48400 -69.57082 22541 ft 397 kts 326°
2026-05-08 15:26 -21.46065 -69.58674 22748 ft 399 kts 326°
2026-05-08 15:26 -21.43708 -69.60259 22951 ft 400 kts 326°
2026-05-08 15:26 -21.41365 -69.61829 23151 ft 402 kts 326°
2026-05-08 15:26 -21.38990 -69.63425 23344 ft 403 kts 326°
2026-05-08 15:27 -21.36612 -69.65030 23536 ft 405 kts 326°
2026-05-08 15:27 -21.34224 -69.66634 23713 ft 406 kts 326°
2026-05-08 15:27 -21.31829 -69.68252 23888 ft 407 kts 326°
2026-05-08 15:27 -21.29430 -69.69885 24058 ft 408 kts 326°
2026-05-08 15:28 -21.27027 -69.71505 24226 ft 409 kts 326°
2026-05-08 15:28 -21.24611 -69.73132 24395 ft 410 kts 326°
2026-05-08 15:28 -21.22197 -69.74759 24558 ft 411 kts 326°
2026-05-08 15:28 -21.19765 -69.76401 24678 ft 413 kts 326°
2026-05-08 15:29 -21.17330 -69.78044 24886 ft 413 kts 326°
2026-05-08 15:29 -21.14900 -69.79684 25101 ft 412 kts 326°
2026-05-08 15:29 -21.12477 -69.81322 25320 ft 412 kts 326°
2026-05-08 15:29 -21.10062 -69.82956 25538 ft 411 kts 326°
2026-05-08 15:30 -21.07674 -69.84574 25761 ft 410 kts 326°
2026-05-08 15:30 -21.05271 -69.86200 25930 ft 409 kts 327°
2026-05-08 15:30 -21.02846 -69.87812 25994 ft 407 kts 327°
2026-05-08 15:30 -21.00457 -69.89405 26015 ft 402 kts 327°
2026-05-08 15:31 -20.98089 -69.91001 26019 ft 403 kts 326°
2026-05-08 15:31 -20.95720 -69.92600 26021 ft 403 kts 327°
2026-05-08 15:31 -20.93330 -69.94187 26023 ft 404 kts 327°
2026-05-08 15:31 -20.90948 -69.95787 26023 ft 405 kts 327°
2026-05-08 15:32 -20.88552 -69.97388 26030 ft 406 kts 327°
2026-05-08 15:32 -20.86157 -69.98979 26032 ft 406 kts 327°
2026-05-08 15:32 -20.83764 -70.00595 26034 ft 406 kts 327°
2026-05-08 15:32 -20.81405 -70.02176 26033 ft 406 kts 327°
2026-05-08 15:33 -20.79003 -70.03770 26032 ft 406 kts 327°
2026-05-08 15:33 -20.76605 -70.05377 26028 ft 406 kts 327°
2026-05-08 15:33 -20.74203 -70.06992 26032 ft 410 kts 327°
2026-05-08 15:33 -20.71772 -70.08609 26035 ft 415 kts 327°
2026-05-08 15:34 -20.69301 -70.10247 26035 ft 420 kts 327°
2026-05-08 15:34 -20.66813 -70.11905 26037 ft 424 kts 327°
2026-05-08 15:34 -20.64295 -70.13590 26037 ft 429 kts 327°
2026-05-08 15:34 -20.61759 -70.15288 26033 ft 433 kts 327°
2026-05-08 15:35 -20.59177 -70.16983 26031 ft 437 kts 329°
2026-05-08 15:35 -20.56488 -70.18513 26034 ft 441 kts 334°
2026-05-08 15:35 -20.53651 -70.19791 26041 ft 444 kts 338°
2026-05-08 15:35 -20.50733 -70.20910 26031 ft 447 kts 340°
2026-05-08 15:36 -20.47773 -70.21972 26033 ft 449 kts 341°
2026-05-08 15:36 -20.45810 -70.22661 26031 ft 449 kts 341°
2026-05-08 15:36 -20.41868 -70.24060 26027 ft 449 kts 341°
2026-05-08 15:36 -20.38908 -70.25127 26028 ft 449 kts 340°
2026-05-08 15:37 -20.35946 -70.26227 26028 ft 450 kts 340°
2026-05-08 15:37 -20.32997 -70.27338 26026 ft 450 kts 340°
2026-05-08 15:37 -20.30042 -70.28426 26027 ft 450 kts 340°
2026-05-08 15:37 -20.27080 -70.29510 26029 ft 450 kts 340°
2026-05-08 15:38 -20.24162 -70.30601 26031 ft 450 kts 340°
2026-05-08 15:38 -20.21206 -70.31699 26031 ft 450 kts 340°
2026-05-08 15:38 -20.18249 -70.32783 26032 ft 449 kts 340°
2026-05-08 15:38 -20.15292 -70.33891 26031 ft 449 kts 340°
2026-05-08 15:39 -20.12342 -70.34986 26036 ft 449 kts 340°
2026-05-08 15:39 -20.09378 -70.36068 26033 ft 450 kts 340°
2026-05-08 15:39 -20.06425 -70.37171 26034 ft 450 kts 340°
2026-05-08 15:39 -20.03468 -70.38274 26034 ft 450 kts 340°
2026-05-08 15:40 -20.00503 -70.39354 26033 ft 450 kts 340°
2026-05-08 15:40 -19.97545 -70.40454 26035 ft 450 kts 339°
2026-05-08 15:40 -19.94591 -70.41560 26031 ft 450 kts 340°
2026-05-08 15:40 -19.91623 -70.42647 26033 ft 450 kts 340°
2026-05-08 15:41 -19.88658 -70.43730 26032 ft 450 kts 340°
2026-05-08 15:41 -19.85704 -70.44829 26034 ft 450 kts 339°
2026-05-08 15:41 -19.82785 -70.45916 26031 ft 450 kts 340°
2026-05-08 15:41 -19.79813 -70.46994 26033 ft 451 kts 340°
2026-05-08 15:42 -19.76847 -70.48082 26034 ft 451 kts 340°
2026-05-08 15:42 -19.73889 -70.49181 26033 ft 451 kts 339°
2026-05-08 15:42 -19.70924 -70.50283 26030 ft 450 kts 340°
2026-05-08 15:42 -19.68205 -70.51268 26031 ft 450 kts 340°
2026-05-08 15:43 -19.65243 -70.52351 26031 ft 450 kts 340°
2026-05-08 15:43 -19.62288 -70.53443 26030 ft 449 kts 339°
2026-05-08 15:43 -19.59336 -70.54537 26031 ft 449 kts 339°
2026-05-08 15:43 -19.56381 -70.55630 26030 ft 450 kts 340°
2026-05-08 15:44 -19.53420 -70.56698 26029 ft 450 kts 340°
2026-05-08 15:44 -19.50462 -70.57782 26030 ft 450 kts 340°
2026-05-08 15:44 -19.47543 -70.58860 26031 ft 450 kts 339°
2026-05-08 15:44 -19.44550 -70.59968 26030 ft 450 kts 339°
2026-05-08 15:45 -19.41644 -70.61081 26029 ft 449 kts 338°
2026-05-08 15:45 -19.38726 -70.62250 26027 ft 449 kts 338°
2026-05-08 15:45 -19.35808 -70.63435 26031 ft 449 kts 338°
2026-05-08 15:45 -19.32896 -70.64628 26028 ft 449 kts 338°
2026-05-08 15:46 -19.29977 -70.65826 26028 ft 449 kts 338°
2026-05-08 15:46 -19.27065 -70.67022 26026 ft 449 kts 338°
2026-05-08 15:46 -19.24151 -70.68220 26025 ft 448 kts 338°
2026-05-08 15:46 -19.21243 -70.69414 26026 ft 448 kts 337°
2026-05-08 15:47 -19.18335 -70.70605 26024 ft 448 kts 337°
2026-05-08 15:47 -19.15416 -70.71796 26021 ft 448 kts 337°
2026-05-08 15:47 -19.12531 -70.72969 26022 ft 448 kts 337°
2026-05-08 15:47 -19.09623 -70.74148 26023 ft 448 kts 337°
2026-05-08 15:48 -19.03795 -70.76517 26025 ft 448 kts 336°
2026-05-08 15:48 -19.00895 -70.77720 26023 ft 447 kts 337°
2026-05-08 15:48 -18.97986 -70.78898 26025 ft 447 kts 337°
2026-05-08 15:49 -18.95078 -70.80073 26024 ft 447 kts 337°
2026-05-08 15:49 -18.92215 -70.81253 26021 ft 447 kts 336°
2026-05-08 15:49 -18.89311 -70.82444 26026 ft 447 kts 337°
2026-05-08 15:49 -18.86404 -70.83609 26017 ft 447 kts 337°
2026-05-08 15:50 -18.83502 -70.84791 26024 ft 447 kts 336°
2026-05-08 15:50 -18.80603 -70.85977 26020 ft 447 kts 336°
2026-05-08 15:50 -18.77705 -70.87162 26022 ft 447 kts 336°
2026-05-08 15:50 -18.74807 -70.88344 26025 ft 447 kts 336°
2026-05-08 15:51 -18.71901 -70.89526 26029 ft 447 kts 336°
2026-05-08 15:51 -18.68998 -70.90701 26021 ft 447 kts 336°
2026-05-08 15:51 -18.66095 -70.91871 26024 ft 446 kts 336°
2026-05-08 15:51 -18.63191 -70.93036 26022 ft 446 kts 336°
2026-05-08 15:52 -18.60313 -70.94187 26024 ft 446 kts 336°
2026-05-08 15:52 -18.57410 -70.95344 26021 ft 446 kts 336°
2026-05-08 15:52 -18.54506 -70.96526 26028 ft 446 kts 336°
2026-05-08 15:52 -18.51608 -70.97714 26020 ft 446 kts 336°
2026-05-08 15:53 -18.48710 -70.98874 26021 ft 446 kts 336°
2026-05-08 15:53 -18.45814 -71.00046 26025 ft 446 kts 336°
2026-05-08 15:53 -18.42918 -71.01233 26021 ft 446 kts 336°
2026-05-08 15:53 -18.40017 -71.02394 26021 ft 446 kts 336°
2026-05-08 15:54 -18.37119 -71.03563 26021 ft 446 kts 336°
2026-05-08 15:54 -18.34218 -71.04749 26020 ft 446 kts 335°
2026-05-08 15:54 -18.31318 -71.05920 26021 ft 446 kts 336°
2026-05-08 15:54 -18.28415 -71.07076 26018 ft 446 kts 336°
2026-05-08 15:55 -18.25555 -71.08236 26019 ft 446 kts 335°
2026-05-08 15:55 -18.19768 -71.10589 26022 ft 446 kts 336°
2026-05-08 15:55 -18.16864 -71.11741 26019 ft 446 kts 336°
2026-05-08 15:56 -18.13955 -71.12906 26019 ft 446 kts 336°
2026-05-08 15:56 -18.12032 -71.13686 26023 ft 446 kts 335°
2026-05-08 15:56 -18.09134 -71.14862 26024 ft 446 kts 336°
2026-05-08 15:56 -18.06227 -71.16015 26018 ft 446 kts 336°
2026-05-08 15:57 -18.03318 -71.17177 26024 ft 446 kts 336°
2026-05-08 15:57 -18.00427 -71.18352 26014 ft 446 kts 335°
2026-05-08 15:57 -17.97537 -71.19521 26019 ft 446 kts 336°
2026-05-08 15:57 -17.94632 -71.20667 26019 ft 446 kts 336°
2026-05-08 15:58 -17.91735 -71.21829 26019 ft 446 kts 335°
2026-05-08 15:58 -17.88832 -71.23005 26017 ft 446 kts 336°
2026-05-08 15:58 -17.85969 -71.24141 26018 ft 446 kts 336°
2026-05-08 15:58 -17.83069 -71.25308 26016 ft 446 kts 336°
2026-05-08 15:59 -17.80165 -71.26476 26019 ft 446 kts 336°
2026-05-08 15:59 -17.77262 -71.27622 26019 ft 446 kts 336°
2026-05-08 15:59 -17.74355 -71.28795 26021 ft 446 kts 336°
2026-05-08 15:59 -17.71459 -71.29961 26020 ft 446 kts 336°
2026-05-08 16:00 -17.68553 -71.31110 26024 ft 447 kts 336°
2026-05-08 16:00 -17.65642 -71.32267 26022 ft 446 kts 336°
2026-05-08 16:00 -17.62744 -71.33440 26029 ft 447 kts 336°
2026-05-08 16:00 -17.59839 -71.34593 26031 ft 447 kts 336°
2026-05-08 16:01 -17.56930 -71.35747 26031 ft 447 kts 336°
2026-05-08 16:01 -17.54062 -71.36904 26029 ft 447 kts 336°
2026-05-08 16:01 -17.51153 -71.38061 26028 ft 447 kts 336°
2026-05-08 16:01 -17.48241 -71.39213 26027 ft 447 kts 336°
2026-05-08 16:02 -17.45336 -71.40380 26029 ft 447 kts 336°
2026-05-08 16:02 -17.42426 -71.41546 26037 ft 447 kts 336°
2026-05-08 16:02 -17.39523 -71.42700 26044 ft 447 kts 336°
2026-05-08 16:02 -17.36611 -71.43852 26050 ft 447 kts 336°
2026-05-08 16:03 -17.33700 -71.45005 26057 ft 447 kts 336°
2026-05-08 16:03 -17.30798 -71.46181 26067 ft 447 kts 336°
2026-05-08 16:03 -17.27897 -71.47343 26076 ft 447 kts 336°
2026-05-08 16:03 -17.24986 -71.48500 26083 ft 447 kts 336°
2026-05-08 16:04 -17.22069 -71.49655 26088 ft 447 kts 336°
2026-05-08 16:04 -17.19159 -71.50808 26092 ft 447 kts 336°
2026-05-08 16:04 -17.16253 -71.51960 26093 ft 447 kts 336°
2026-05-08 16:04 -17.13344 -71.53113 26098 ft 447 kts 336°
2026-05-08 16:05 -17.10435 -71.54267 26100 ft 447 kts 336°
2026-05-08 16:05 -17.07524 -71.55423 26101 ft 447 kts 336°
2026-05-08 16:05 -17.04614 -71.56579 26107 ft 447 kts 336°
2026-05-08 16:05 -17.01704 -71.57735 26117 ft 447 kts 336°
2026-05-08 16:06 -16.98799 -71.58890 26117 ft 448 kts 336°
2026-05-08 16:06 -16.95922 -71.60034 26121 ft 448 kts 336°
2026-05-08 16:06 -16.93005 -71.61195 26129 ft 448 kts 336°
2026-05-08 16:06 -16.90098 -71.62354 26132 ft 448 kts 336°
2026-05-08 16:07 -16.87178 -71.63518 26137 ft 448 kts 336°
2026-05-08 16:07 -16.84261 -71.64682 26136 ft 448 kts 336°
2026-05-08 16:07 -16.81349 -71.65845 26144 ft 448 kts 336°
2026-05-08 16:07 -16.78434 -71.67009 26152 ft 448 kts 336°
2026-05-08 16:08 -16.75523 -71.68174 26158 ft 449 kts 336°
2026-05-08 16:08 -16.72605 -71.69337 26153 ft 449 kts 337°
2026-05-08 16:08 -16.69687 -71.70487 26161 ft 449 kts 336°
2026-05-08 16:08 -16.66773 -71.71644 26169 ft 448 kts 337°
2026-05-08 16:09 -16.63849 -71.72788 26185 ft 449 kts 337°
2026-05-08 16:09 -16.60968 -71.73928 26197 ft 449 kts 336°
2026-05-08 16:09 -16.58107 -71.75067 26216 ft 449 kts 336°
2026-05-08 16:09 -16.55178 -71.76223 26229 ft 449 kts 337°
2026-05-08 16:10 -16.52256 -71.77361 26238 ft 449 kts 337°
2026-05-08 16:10 -16.49330 -71.78524 26249 ft 448 kts 336°
2026-05-08 16:10 -16.46414 -71.79685 26259 ft 448 kts 337°
2026-05-08 16:10 -16.43490 -71.80826 26267 ft 448 kts 337°
2026-05-08 16:11 -16.40563 -71.81968 26270 ft 449 kts 337°
2026-05-08 16:11 -16.37698 -71.83146 26266 ft 447 kts 333°
2026-05-08 16:11 -16.34966 -71.84689 26270 ft 446 kts 328°
2026-05-08 16:11 -16.32289 -71.86330 26261 ft 446 kts 325°
2026-05-08 16:12 -16.29779 -71.88204 26253 ft 444 kts 319°
2026-05-08 16:12 -16.27443 -71.90308 26243 ft 443 kts 315°
2026-05-08 16:12 -16.25196 -71.92508 26237 ft 443 kts 314°
2026-05-08 16:12 -16.22978 -71.94736 26232 ft 443 kts 314°
2026-05-08 16:13 -16.20779 -71.96971 26227 ft 441 kts 314°
2026-05-08 16:13 -16.18583 -71.99178 26215 ft 436 kts 314°
2026-05-08 16:13 -16.16385 -72.01366 26221 ft 437 kts 315°
2026-05-08 16:13 -16.14168 -72.03530 26216 ft 438 kts 315°
2026-05-08 16:14 -16.11960 -72.05666 26218 ft 438 kts 315°
2026-05-08 16:14 -16.09741 -72.07829 26219 ft 438 kts 315°
2026-05-08 16:14 -16.07526 -72.10011 26219 ft 438 kts 315°
2026-05-08 16:14 -16.05299 -72.12178 26224 ft 438 kts 315°
2026-05-08 16:15 -16.03067 -72.14340 26214 ft 438 kts 315°
2026-05-08 16:15 -16.00858 -72.16511 26210 ft 438 kts 315°
2026-05-08 16:15 -15.98643 -72.18678 26198 ft 438 kts 315°
2026-05-08 16:15 -15.96407 -72.20836 26181 ft 437 kts 315°
2026-05-08 16:16 -15.94211 -72.22983 26179 ft 437 kts 315°
2026-05-08 16:16 -15.91998 -72.25153 26180 ft 438 kts 315°
2026-05-08 16:16 -15.89765 -72.27310 26179 ft 438 kts 315°
2026-05-08 16:16 -15.87544 -72.29478 26182 ft 438 kts 315°
2026-05-08 16:17 -15.85331 -72.31649 26181 ft 438 kts 315°
2026-05-08 16:17 -15.83828 -72.33109 26187 ft 438 kts 315°
2026-05-08 16:17 -15.80776 -72.35855 26172 ft 439 kts 320°
2026-05-08 16:17 -15.78309 -72.37741 26184 ft 440 kts 323°
2026-05-08 16:18 -15.75762 -72.39512 26193 ft 441 kts 324°
2026-05-08 16:18 -15.73183 -72.41251 26212 ft 442 kts 325°
2026-05-08 16:18 -15.70589 -72.42978 26215 ft 442 kts 326°
2026-05-08 16:18 -15.67992 -72.44695 26210 ft 442 kts 326°
2026-05-08 16:19 -15.65405 -72.46411 26211 ft 441 kts 325°
2026-05-08 16:19 -15.62832 -72.48145 26208 ft 442 kts 325°
2026-05-08 16:19 -15.60259 -72.49888 26202 ft 442 kts 325°
2026-05-08 16:19 -15.57714 -72.51618 26202 ft 442 kts 325°
2026-05-08 16:20 -15.55151 -72.53364 26197 ft 441 kts 325°
2026-05-08 16:20 -15.52586 -72.55113 26192 ft 441 kts 325°
2026-05-08 16:20 -15.50021 -72.56863 26194 ft 441 kts 325°
2026-05-08 16:20 -15.47455 -72.58612 26193 ft 441 kts 325°
2026-05-08 16:21 -15.44887 -72.60362 26188 ft 442 kts 325°
2026-05-08 16:21 -15.42320 -72.62113 26191 ft 442 kts 325°
2026-05-08 16:21 -15.39747 -72.63862 26197 ft 442 kts 325°
2026-05-08 16:21 -15.37163 -72.65588 26194 ft 442 kts 325°
2026-05-08 16:22 -15.34579 -72.67334 26187 ft 442 kts 325°
2026-05-08 16:22 -15.32043 -72.69059 26184 ft 442 kts 325°
2026-05-08 16:22 -15.29471 -72.70810 26180 ft 442 kts 325°
2026-05-08 16:22 -15.26892 -72.72554 26171 ft 442 kts 325°
2026-05-08 16:23 -15.24311 -72.74296 26171 ft 442 kts 325°
2026-05-08 16:23 -15.21738 -72.76043 26172 ft 442 kts 325°
2026-05-08 16:23 -15.19151 -72.77780 26179 ft 443 kts 325°
2026-05-08 16:23 -15.16565 -72.79521 26183 ft 443 kts 325°
2026-05-08 16:24 -15.13982 -72.81268 26171 ft 443 kts 325°
2026-05-08 16:24 -15.11399 -72.83023 26162 ft 443 kts 325°
2026-05-08 16:24 -15.08849 -72.84749 26153 ft 443 kts 325°
2026-05-08 16:24 -15.06259 -72.86478 26158 ft 443 kts 325°
2026-05-08 16:25 -15.03672 -72.88227 26150 ft 444 kts 325°
2026-05-08 16:25 -15.01088 -72.89982 26160 ft 444 kts 325°
2026-05-08 16:25 -14.98489 -72.91719 26164 ft 444 kts 326°
2026-05-08 16:25 -14.95896 -72.93459 26161 ft 444 kts 325°
2026-05-08 16:26 -14.93307 -72.95214 26152 ft 444 kts 325°
2026-05-08 16:26 -14.90717 -72.96973 26171 ft 444 kts 325°
2026-05-08 16:26 -14.88120 -72.98717 26169 ft 445 kts 326°
2026-05-08 16:26 -14.85556 -73.00430 26155 ft 445 kts 325°
2026-05-08 16:27 -14.82967 -73.02185 26161 ft 445 kts 325°
2026-05-08 16:27 -14.80373 -73.03936 26176 ft 445 kts 326°
2026-05-08 16:27 -14.77767 -73.05675 26182 ft 445 kts 325°
2026-05-08 16:27 -14.75173 -73.07428 26169 ft 445 kts 325°
2026-05-08 16:28 -14.72575 -73.09178 26181 ft 445 kts 325°
2026-05-08 16:28 -14.69978 -73.10922 26169 ft 445 kts 326°
2026-05-08 16:28 -14.67375 -73.12666 26177 ft 446 kts 325°
2026-05-08 16:28 -14.64780 -73.14424 26185 ft 446 kts 325°
2026-05-08 16:29 -14.62178 -73.16167 26179 ft 446 kts 326°
2026-05-08 16:29 -14.59600 -73.17887 26183 ft 446 kts 326°
2026-05-08 16:29 -14.57005 -73.19641 26164 ft 446 kts 325°
2026-05-08 16:29 -14.54408 -73.21391 26166 ft 446 kts 326°
2026-05-08 16:30 -14.51794 -73.23127 26166 ft 446 kts 326°
2026-05-08 16:30 -14.49194 -73.24877 26178 ft 446 kts 325°
2026-05-08 16:30 -14.46603 -73.26629 26163 ft 447 kts 325°
2026-05-08 16:30 -14.43984 -73.28375 26162 ft 447 kts 326°
2026-05-08 16:31 -14.41369 -73.30121 26169 ft 447 kts 325°
2026-05-08 16:31 -14.38770 -73.31876 26173 ft 447 kts 325°
2026-05-08 16:31 -14.36157 -73.33622 26180 ft 447 kts 326°
2026-05-08 16:31 -14.33544 -73.35360 26175 ft 447 kts 325°
2026-05-08 16:32 -14.30940 -73.37116 26181 ft 447 kts 326°
2026-05-08 16:32 -14.28327 -73.38851 26187 ft 447 kts 326°
2026-05-08 16:32 -14.25750 -73.40570 26188 ft 447 kts 326°
2026-05-08 16:32 -14.23119 -73.42348 26195 ft 447 kts 326°
2026-05-08 16:33 -14.20540 -73.44064 26195 ft 447 kts 326°
2026-05-08 16:33 -14.17925 -73.45802 26200 ft 447 kts 326°
2026-05-08 16:33 -14.15319 -73.47561 26204 ft 447 kts 326°
2026-05-08 16:33 -14.12702 -73.49300 26212 ft 447 kts 327°
2026-05-08 16:34 -14.09987 -73.50873 26214 ft 448 kts 331°
2026-05-08 16:34 -14.07164 -73.52245 26220 ft 449 kts 337°
2026-05-08 16:34 -14.04195 -73.53260 26231 ft 450 kts 343°
2026-05-08 16:34 -14.01150 -73.54042 26227 ft 451 kts 346°
2026-05-08 16:35 -13.98085 -73.54741 26256 ft 451 kts 346°
2026-05-08 16:35 -13.95019 -73.55408 26297 ft 451 kts 347°
2026-05-08 16:35 -13.91943 -73.56079 26307 ft 451 kts 346°
2026-05-08 16:35 -13.88868 -73.56767 26324 ft 451 kts 346°
2026-05-08 16:36 -13.85853 -73.57454 26338 ft 450 kts 346°
2026-05-08 16:36 -13.82795 -73.58184 26351 ft 451 kts 346°
2026-05-08 16:36 -13.79739 -73.58920 26361 ft 451 kts 346°
2026-05-08 16:36 -13.76676 -73.59633 26381 ft 451 kts 346°
2026-05-08 16:37 -13.73615 -73.60341 26379 ft 451 kts 346°
2026-05-08 16:37 -13.70753 -73.61021 25171 ft 403 kts 346°
2026-05-08 16:37 -13.68073 -73.61651 23240 ft 388 kts 348°
2026-05-08 16:37 -13.65940 -73.61918 21608 ft 376 kts 360°
2026-05-08 16:38 -13.63384 -73.61657 19809 ft 362 kts 12°
2026-05-08 16:38 -13.61000 -73.61000 18080 ft 347 kts 19°
2026-05-08 16:38 -13.58770 -73.60014 16668 ft 352 kts 31°
2026-05-08 16:38 -13.56878 -73.58718 16102 ft 305 kts 36°
2026-05-08 16:39 -13.55268 -73.57486 15505 ft 277 kts 38°
2026-05-08 16:39 -13.53844 -73.56239 14750 ft 264 kts 46°
2026-05-08 16:39 -13.52639 -73.54836 13873 ft 260 kts 51°
2026-05-08 16:39 -13.51509 -73.53399 12934 ft 265 kts 51°
2026-05-08 16:40 -13.50436 -73.51895 12756 ft 260 kts 62°
2026-05-08 16:40 -13.49722 -73.50209 12512 ft 258 kts 69°
2026-05-08 16:40 -13.49127 -73.48475 12241 ft 257 kts 70°
2026-05-08 16:40 -13.48568 -73.46737 11984 ft 256 kts 71°
2026-05-08 16:41 -13.48026 -73.44989 11742 ft 255 kts 71°
2026-05-08 16:41 -13.47482 -73.43256 11542 ft 255 kts 70°
2026-05-08 16:41 -13.46929 -73.41525 11429 ft 258 kts 71°
2026-05-08 16:42 -13.46492 -73.37887 11430 ft 258 kts 88°
2026-05-08 16:42 -13.46751 -73.36076 11563 ft 256 kts 115°
2026-05-08 16:42 -13.47907 -73.34727 11912 ft 253 kts 151°
2026-05-08 16:42 -13.49571 -73.34196 12507 ft 253 kts 166°
2026-05-08 16:43 -13.51080 -73.33356 13115 ft 254 kts 137°
2026-05-08 16:43 -13.52400 -73.32027 13411 ft 270 kts 134°
2026-05-08 16:43 -13.53722 -73.30661 13777 ft 274 kts 134°
2026-05-08 16:43 -13.55077 -73.29296 13657 ft 271 kts 141°
2026-05-08 16:44 -13.56614 -73.28221 13610 ft 265 kts 156°
2026-05-08 16:44 -13.58353 -73.27641 13573 ft 263 kts 164°
2026-05-08 16:44 -13.60139 -73.27227 13581 ft 263 kts 179°
2026-05-08 16:44 -13.61891 -73.27666 13619 ft 260 kts 208°
2026-05-08 16:45 -13.62905 -73.28284 13648 ft 249 kts 213°
2026-05-08 16:45 -13.64089 -73.29462 13537 ft 228 kts 237°
2026-05-08 16:45 -13.64870 -73.30771 13245 ft 201 kts 239°
2026-05-08 16:45 -13.65992 -73.32104 12772 ft 177 kts 216°
2026-05-08 16:46 -13.66688 -73.32526 12621 ft 169 kts 207°
2026-05-08 16:46 -13.67699 -73.33081 12324 ft 165 kts 214°
2026-05-08 16:46 -13.68654 -73.33711 12105 ft 161 kts 215°
2026-05-08 16:46 -13.69596 -73.34316 11881 ft 161 kts 213°
2026-05-08 16:47 -13.70541 -73.34919 11686 ft 152 kts 214°
2026-05-08 16:47 -13.71301 -73.35409 11669 ft 95 kts 211°
2026-05-08 16:47 -13.71647 -73.35645 11646 ft 24 kts 214°
2026-05-08 16:47 -13.71686 -73.35653 11647 ft 9 kts 47°
2026-05-08 16:48 -13.71593 -73.35596 11650 ft 21 kts 29°
2026-05-08 16:48 -13.71457 -73.35511 11656 ft 20 kts 34°
2026-05-08 16:48 -13.71365 -73.35450 11666 ft 11 kts 32°
2026-05-08 16:48 -13.71316 -73.35419 11670 ft 8 kts 31°
2026-05-08 16:49 -13.71252 -73.35380 11671 ft 14 kts 31°
2026-05-08 16:49 -13.71222 -73.35302 11672 ft 15 kts 136°
2026-05-08 16:49 -13.71280 -73.35302 11671 ft 7 kts 141°
2026-05-08 16:49 -13.71293 -73.35286 11672 ft 1 kts 127°
2026-05-08 16:50 -13.71297 -73.35281 11672 ft 1 kts 128°
2026-05-08 16:50 -13.71299 -73.35278 11672 ft 0 kts 128°